Showing default

GEESAT 1-03, 52787

Orbit data source: Space-Track

GEESAT 1-03, 52787 is a payload satellite owned by GeeSpace (CN) in LEO that was launched on Thu, 02 Jun 2022 UTC via a CHANG ZHENG 2C launch vehicle from the Xichang Space Center, China (XSC). Payload-class satellites include a variety of spacecraft equipped with specific instruments for various scientific and technological missions. These include communications satellites like Starlink; space stations such as the ISS; scientific satellites like the Hubble; Earth observation satellites from companies like Planet Labs, Umbra, and HawkEye 360; GPS; miniature CubeSats for education and research; and military/defense satellites.

Loading next visibility...
Identifier
52787, 2022-058C
Orbit
LEO
Country
Flag of CNCN / PRC
Related business
Manufacturer
GWCG
Mission
Operational Commercial Navigation
Bus & Motor
GPS100, Unknown motor
Mass
130 kg wet, 130 kg dry
Launch date (UTC)
2022-06-02 (4 years ago)
Launch vehicle
CHANG ZHENG 2C
Launch site
Xichang Space Center, China (XSC)
Object type
Payload
Rocket body
Debris
Shape & HBR
Box + 2 Pan, 1.0 m
Radar Cross Section
0.833 m², Medium (>0.1 m² and < 1m²)

Expand to show TLE details & history
Last TLE update: 16 hours ago

TLE from 16 hours ago
0 GEESAT 1-03
1 52787U 22058C   25348.95878027  .00003930  00000-0  35211-3 0  9994
2 52787  49.9876 336.8515 0000855 136.8254 223.2757 14.97788717192551
Epoch: 2025-12-14T23:00Z
TLE epoch observation values (Epoch: 2025-12-14T23:00:38.615Z)
Latitude
-0.00003°
Longitude
-92.17365°
Altitude
574.709 km
Speed
7.575 km/s
True Right ascension
22h 27m 24s
True Declination
0° 00' 00"
Sunlit
Object was in daylight at epoch
Visualization orbit readout
Latitude
Unknown
Longitude
Unknown
Altitude
Unknown
Speed
Unknown
Apparent Right ascension
Unknown
Apparent Declination
Unknown
Sunlit
N/A
Visualization observer readout
Local Sidereal Time
13:22:55
Azimuth
Unknown
Elevation
Unknown
Doppler factor
Unknown
Orbital elements
Apogee altitude
575.09 km
Perigee altitude
573.901 km
Semi-major axis
6,952.632 km
Eccentricity
0.00009
Inclination
49.9876°
RAAN
336.8515°
Arg. of periapsis
136.8254°
True anomaly
223.26898°
Mean anomaly
223.2757°
Eccentric anomaly
223.27234°
Mean motion
3.74386 °/min
Orbital period
96.16 mins
BSTAR
0.00035211
Loading maneuver chart data...
Computing Atmospheric mass density...
Loading historical data...
Loading historical data...
Loading historical data...
Loading historical data...
Loading historical data...
Loading historical data...
Loading historical data...

Documentation

Showing up to 5 results
|